Location: Albuquerque Trailhead
(34.7934°N, 106.3736°W)
Time: 04:35:42
(UTC+00:00)

CZ-4C R/B - Pass Details

Date: 20 June 2021
Orbit: 464 x 632 km, 98.0° (Epoch: 29 July)

Event Time Altitude Azimuth Distance (km) Brightness Sun altitude
Exits shadow 10:17:56 30° 187° (S) 865 3.9 -16.3°
Maximum altitude 10:19:28 63° 258° (WSW) 522 2.9 -16.0°
Drops below altitude 10° 10:22:54 10° 341° (NNW) 1,621 6.0 -15.5°
Sets 10:24:57 0° 345° (NNW) 2,505 7.1 -15.2°
